Total_Precipitation_Accumulation
0.02 0.03 0.03 0.03 0.05 0.05 0.06 0.05 0.04 0.07 0.08 0.06 0.05 0.04 0.03 0.02 0.02 0.03 0.04 0.05 0.04 0.05 0.06 0.10 0.12 0.12 0.12
0.02 0.04 0.04 0.02 0.01 0.01 0.01 0.01 0.01 0.03 0.05 0.06 0.05 0.05 0.06 0.05 0.06 0.06 0.08 0.10 0.10 0.08 0.07 0.07 0.07 0.07 0.08
0.06 0.04 0.06 0.08 0.06 0.04 0.02 0.01 0.01 0.01 0.02 0.03 0.05 0.07 0.10 0.14 0.15 0.16 0.16 0.18 0.18 0.16 0.15 0.13 0.10 0.08 0.07
0.28 0.23 0.24 0.25 0.34 0.33 0.25 0.14 0.09 0.07 0.06 0.06 0.07 0.07 0.11 0.19 0.24 0.29 0.33 0.32 0.28 0.24 0.20 0.20 0.20 0.19 0.19
0.33 0.34 0.37 0.39 0.42 0.41 0.41 0.31 0.27 0.24 0.24 0.23 0.17 0.15 0.16 0.22 0.31 0.40 0.40 0.36 0.32 0.29 0.26 0.25 0.25 0.26 0.27
0.14 0.14 0.12 0.16 0.17 0.25 0.30 0.30 0.24 0.16 0.21 0.21 0.25 0.29 0.26 0.25 0.33 0.31 0.31 0.32 0.32 0.32 0.31 0.31 0.28 0.27 0.29
0.08 0.08 0.07 0.07 0.09 0.09 0.12 0.18 0.16 0.13 0.21 0.27 0.31 0.29 0.28 0.27 0.24 0.19 0.20 0.23 0.26 0.28 0.28 0.30 0.32 0.36 0.38
0.07 0.08 0.09 0.16 0.21 0.23 0.24 0.23 0.19 0.23 0.29 0.34 0.32 0.35 0.36 0.34 0.38 0.28 0.27 0.28 0.28 0.29 0.31 0.35 0.40 0.42 0.41
0.11 0.16 0.23 0.24 0.40 0.40 0.42 0.39 0.37 0.33 0.36 0.39 0.46 0.44 0.44 0.45 0.44 0.48 0.47 0.45 0.44 0.44 0.45 0.43 0.42 0.43 0.41
0.19 0.16 0.20 0.22 0.28 0.32 0.39 0.45 0.46 0.45 0.44 0.47 0.48 0.52 0.50 0.45 0.42 0.42 0.42 0.44 0.42 0.39 0.36 0.34 0.31 0.27 0.25
0.21 0.22 0.21 0.24 0.32 0.38 0.42 0.45 0.45 0.44 0.51 0.54 0.51 0.45 0.39 0.42 0.45 0.34 0.22 0.17 0.14 0.16 0.17 0.18 0.20 0.20 0.17
0.12 0.15 0.21 0.19 0.16 0.13 0.14 0.19 0.24 0.23 0.22 0.19 0.19 0.23 0.25 0.22 0.17 0.17 0.14 0.10 0.07 0.06 0.06 0.06 0.05 0.05 0.04
0.03 0.04 0.05 0.04 0.03 0.02 0.03 0.03 0.05 0.08 0.06 0.04 0.06 0.07 0.06 0.05 0.05 0.06 0.04 0.02 0.02 0.02 0.01 0.01 0.00 0.00 0.00
0.00 0.00 0.00 0.00 0.00 0.00 0.00 0.00 0.00 0.00 0.01 0.01 0.00 0.00 0.00 0.00 0.00 0.00 0.00 0.00 0.00 0.00 0.00 0.00 0.00 0.00 0.00
0.00 0.00 0.00 0.00 0.00 0.00 0.00 0.00 0.00 0.00 0.00 0.00 0.00 0.00 0.00 0.00 0.00 0.00 0.00 0.00 0.00 0.00 0.00 0.00 0.00 0.00 0.00
0.00 0.00 0.00 0.00 0.00 0.00 0.00 0.00 0.00 0.00 0.00 0.00 0.00 0.00 0.00 0.00 0.00 0.00 0.00 0.00 0.00 0.00 0.00 0.00 0.00 0.00 0.00
0.00 0.00 0.00 0.00 0.00 0.00 0.00 0.00 0.00 0.00 0.00 0.00 0.00 0.00 0.00 0.00 0.00 0.00 0.00 0.00 0.00 0.00 0.00 0.00 0.00 0.00 0.00